User: anonymous   Login
Location: ??????
(42.0089°N, 44.3281°E)
Time: 16:29:00
(UTC+00:00)
Language:

Cosmos 2278 Rocket - Orbit

View from above orbital plane
View from above orbital plane
View from above satellite
View from above satellite

Ground track
Ground track

The orbit data is extracted from the following two-line orbital elements,

1 23088U 94023B   22018.70217369  .00000325  00000-0  19370-3 0  9990
2 23088  71.0006   3.2012 0001306  49.9768 310.1468 14.14698889432378
Epoch (UTC): 18 January 2022 16:51:07
Eccentricity: 0.0001306
inclination: 71.0006°
perigee height: 842 km
apogee height: 844 km
right ascension of ascending node: 3.2012°
argument of perigee: 49.9768°
revolutions per day: 14.14698889
mean anomaly at epoch: 310.1468°
orbit number at epoch: 43237

The dashed part of the orbit path shows where the satellite is in the earth's shadow,  

DLR